This demonstration page uses our WeatherBlox Daily Observations layout. Learn more.

Left ArrowRight Arrow

47.50024, -111.30081

Hourly Observations for January 29, 2016

Temp ( °F °C ) Dew Point ( °F °C ) Humidity (%) Winds ( mph kmh ) Pressure ( in mb ) Visibility ( mi km ) Precip ( " mm )
12:53 am 00:53 Mostly Clear 41 5 28 -2.2 60 60 SW 18 30 29.70 1006 10 16 0.00 0.00
1:53 am 01:53 Clear 39 3.9 24 -4.4 55 55 WSW 21 33 29.74 1007 10 16 0.00 0.00
2:53 am 02:53 Mostly Clear 35 1.7 23 -5 61 61 WSW 15 24 29.77 1008 10 16 0.00 0.00
3:53 am 03:53 Mostly Cloudy 38 3.3 22 -5.6 52 52 WSW 16 26 29.78 1008 10 16 0.00 0.00
4:53 am 04:53 Clear 34 1.1 21 -6.1 59 59 SW 14 22 29.81 1010 10 16 0.00 0.00
5:53 am 05:53 Clear 34 1.1 20 -6.7 56 56 SW 15 24 29.80 1009 10 16 0.00 0.00
6:53 am 06:53 Clear 34 1.1 21 -6.1 59 59 SW 13 20 29.81 1010 10 16 0.00 0.00
7:53 am 07:53 Clear 34 1.1 22 -5.6 61 61 SW 12 19 29.81 1010 10 16 0.00 0.00
8:53 am 08:53 Sunny 38 3.3 22 -5.6 52 52 SW 18 30 29.80 1009 10 16 0.00 0.00
9:53 am 09:53 Sunny 38 3.3 22 -5.6 52 52 SW 16 26 29.80 1009 10 16 0.00 0.00
10:53 am 10:53 Mostly Sunny 39 3.9 21 -6.1 48 48 WSW 18 30 29.80 1009 10 16 0.00 0.00
11:53 am 11:53 Sunny 40 4.4 21 -6.1 47 47 WSW 14 22 29.74 1007 10 16 0.00 0.00
12:53 pm 12:53 Sunny 42 5.6 20 -6.7 41 41 WSW 14 22 29.68 1005 10 16 0.00 0.00
1:53 pm 13:53 Mostly Sunny 42 5.6 19 -7.2 40 40 WSW 18 30 29.65 1004 10 16 0.00 0.00
2:53 pm 14:53 Cloudy 43 6.1 20 -6.7 40 40 WSW 16 26 29.62 1003 10 16 0.00 0.00
3:53 pm 15:53 Cloudy 41 5 23 -5 49 49 SW 16 26 29.62 1003 10 16 0.00 0.00
4:53 pm 16:53 Cloudy 39 3.9 27 -2.8 62 62 SW 17 28 29.62 1003 10 16 0.00 0.00
5:53 pm 17:53 Cloudy 36 2.2 28 -2.2 73 73 SSW 10 17 29.61 1003 10 16 0.00 0.00
6:53 pm 18:53 Clear 33 0.6 27 -2.8 78 78 SW 14 22 29.58 1002 10 16 0.00 0.00
7:53 pm 19:53 Clear 36 2.2 27 -2.8 70 70 SW 22 35 29.56 1001 10 16 0.00 0.00
8:53 pm 20:53 Clear 35 1.7 24 -4.4 64 64 SW 21 33 29.54 1001 10 16 0.00 0.00
9:53 pm 21:53 Clear 36 2.2 20 -6.7 52 52 WSW 21 33 29.55 1001 10 16 0.00 0.00
10:53 pm 22:53 Clear 35 1.7 20 -6.7 54 54 WSW 21 33 29.57 1002 10 16 0.00 0.00
11:53 pm 23:53 Clear 34 1.1 20 -6.7 56 56 SW 22 35 29.57 1001 10 16 0.00 0.00

Powered by AerisWeather